�N����,����,�~����,�C��,���x,�C��,����,���ϕ���,�ő�u�ԕ���,�ő厞����,���˗�,�I�_���x,�n�����x,�ő啗���N��,DTYPE
"18/12/26","00:10",0.0,2.0,96.0,1014.9,292.9,1.8,2.7,314.9,0.00,1.5,7.2,"00:08:56",1
"18/12/26","00:20",0.0,1.9,95.4,1014.7,301.8,2.1,3.4,322.8,0.00,1.3,7.2,"00:18:48",1
"18/12/26","00:30",0.0,1.9,96.0,1014.9,313.3,2.5,3.3,320.4,0.00,1.4,7.3,"00:28:16",1
"18/12/26","00:40",0.0,1.8,96.7,1014.5,298.4,1.7,2.9,320.5,0.00,1.4,7.2,"00:31:04",1
"18/12/26","00:50",0.0,2.0,96.7,1014.7,293.0,2.0,2.5,297.1,0.00,1.6,7.4,"00:43:12",1
"18/12/26","01:00",0.0,1.9,96.2,1014.2,305.7,2.3,3.3,318.9,0.00,1.4,7.1,"00:54:56",1
"18/12/26","01:10",0.0,1.9,96.7,1014.7,285.4,1.8,2.2,302.2,0.00,1.5,7.1,"01:06:52",1
"18/12/26","01:20",0.0,2.0,96.7,1014.2,292.7,2.0,3.1,309.6,0.00,1.6,7.1,"01:15:36",1
"18/12/26","01:30",0.0,1.9,96.9,1014.2,279.8,1.6,1.9,287.3,0.00,1.5,7.0,"01:23:36",1
"18/12/26","01:40",0.0,1.9,96.8,1014.0,284.7,2.0,2.2,289.3,0.00,1.5,6.9,"01:34:08",1
"18/12/26","01:50",0.0,2.0,97.2,1014.5,290.6,2.2,2.8,307.7,0.00,1.6,7.2,"01:44:56",1
"18/12/26","02:00",0.0,2.1,97.1,1014.2,297.4,2.1,2.7,299.2,0.00,1.7,7.0,"01:51:20",1
"18/12/26","02:10",0.0,1.8,96.7,1014.5,300.9,1.7,2.4,312.5,0.00,1.4,6.9,"02:02:24",1
"18/12/26","02:20",0.0,1.5,97.0,1014.0,312.1,2.5,2.8,315.4,0.00,1.1,7.0,"02:12:48",1
"18/12/26","02:30",0.0,1.6,97.4,1014.0,305.5,1.8,3.1,315.2,0.00,1.3,6.9,"02:21:20",1
"18/12/26","02:40",0.0,1.7,98.1,1014.2,299.6,1.8,2.1,322.6,0.00,1.5,6.9,"02:39:36",1
"18/12/26","02:50",0.0,1.9,96.9,1014.5,273.2,1.1,2.4,320.4,0.00,1.5,7.1,"02:40:24",1
"18/12/26","03:00",0.0,1.9,97.9,1014.2,299.8,1.8,2.5,312.8,0.00,1.6,7.0,"02:58:08",1
"18/12/26","03:10",0.0,2.2,98.0,1014.2,309.8,2.3,2.8,316.3,0.00,2.0,6.8,"03:04:16",1
"18/12/26","03:20",0.0,2.4,97.1,1014.2,290.3,1.6,2.2,304.7,0.00,2.0,6.8,"03:19:36",1
"18/12/26","03:30",0.0,2.5,97.6,1014.5,298.1,2.2,2.9,316.5,0.00,2.2,7.0,"03:29:04",1
"18/12/26","03:40",0.0,2.8,97.4,1014.5,296.6,2.3,3.9,333.7,0.00,2.5,6.9,"03:31:36",1
"18/12/26","03:50",0.0,3.1,97.2,1014.5,299.8,2.5,4.2,328.1,0.00,2.7,7.0,"03:44:48",1
"18/12/26","04:00",0.0,3.3,97.0,1014.2,299.7,2.5,4.5,318.7,0.00,2.9,6.9,"03:59:36",1
"18/12/26","04:10",0.0,3.6,96.5,1014.2,299.4,2.2,4.3,323.9,0.00,3.1,7.1,"04:00:40",1
"18/12/26","04:20",0.0,3.7,96.2,1014.9,285.2,1.6,2.0,293.3,0.00,3.2,7.2,"04:17:44",1
"18/12/26","04:30",0.0,3.9,96.1,1014.7,312.2,2.0,3.9,328.7,0.00,3.4,7.0,"04:26:56",1
"18/12/26","04:40",0.0,4.1,95.6,1014.9,319.1,1.7,3.6,278.5,0.00,3.5,7.0,"04:38:56",1
"18/12/26","04:50",0.0,4.1,94.9,1014.9,295.6,2.6,4.3,332.8,0.00,3.4,7.1,"04:45:36",1
"18/12/26","05:00",0.0,4.1,94.6,1014.9,269.8,2.0,3.2,266.6,0.00,3.4,7.1,"04:56:00",1
"18/12/26","05:10",0.0,4.2,94.1,1015.4,273.3,2.1,3.2,294.1,0.00,3.4,7.1,"05:00:40",1
"18/12/26","05:20",0.0,4.2,93.8,1015.2,310.0,2.0,3.2,324.0,0.00,3.3,7.2,"05:17:44",1
"18/12/26","05:30",0.0,4.2,93.6,1015.2,316.9,1.8,3.6,317.0,0.00,3.3,7.2,"05:27:20",1
"18/12/26","05:40",0.0,4.2,93.4,1015.4,274.0,1.1,1.6,309.3,0.00,3.3,7.0,"05:30:08",1
"18/12/26","05:50",0.0,4.3,93.3,1015.6,272.0,1.2,1.8,293.8,0.00,3.4,7.1,"05:46:32",1
"18/12/26","06:00",0.0,4.3,93.1,1015.6,293.0,1.6,2.6,315.2,0.00,3.3,7.2,"05:58:16",1
"18/12/26","06:10",0.0,4.3,93.1,1015.9,277.1,1.0,2.4,314.9,0.00,3.3,7.4,"06:02:40",1
"18/12/26","06:20",0.0,4.4,93.2,1015.6,283.4,0.3,1.1,295.2,0.00,3.4,7.1,"06:11:04",1
"18/12/26","06:30",0.0,4.4,93.3,1015.9,301.7,1.6,2.2,299.6,0.00,3.5,7.1,"06:28:08",1
"18/12/26","06:40",0.0,4.4,93.5,1015.6,278.2,1.6,3.3,314.6,0.00,3.5,7.2,"06:36:16",1
"18/12/26","06:50",0.0,4.3,93.8,1015.4,288.8,1.2,2.4,306.5,0.00,3.4,7.4,"06:42:08",1
"18/12/26","07:00",0.0,4.3,94.2,1015.4,291.2,1.5,2.1,305.7,0.00,3.5,7.4,"06:52:16",1
"18/12/26","07:10",0.0,4.3,94.4,1015.6,284.7,1.1,1.3,304.4,0.00,3.5,7.4,"07:00:16",1
"18/12/26","07:20",0.0,4.3,94.8,1015.4,288.1,1.6,2.8,321.4,0.00,3.6,7.4,"07:18:40",1
"18/12/26","07:30",0.0,4.3,94.9,1014.7,320.6,2.0,3.3,314.8,0.00,3.6,7.6,"07:22:16",1
"18/12/26","07:40",0.0,4.4,95.3,1014.2,319.0,1.8,2.8,313.1,0.00,3.8,7.3,"07:36:40",1
"18/12/26","07:50",0.0,4.6,95.6,1014.5,290.7,1.7,2.8,316.1,0.00,4.0,7.4,"07:42:56",1
"18/12/26","08:00",0.0,4.7,95.3,1014.5,280.0,2.0,2.7,303.5,0.00,4.1,7.4,"07:57:52",1
"18/12/26","08:10",0.0,4.8,95.4,1014.2,254.0,1.2,2.6,219.6,0.00,4.2,7.3,"08:09:20",1
"18/12/26","08:20",0.0,4.9,95.4,1014.2,270.5,2.0,2.7,267.9,0.00,4.3,7.3,"08:12:16",1
"18/12/26","08:30",0.0,5.0,95.4,1014.2,259.3,1.2,2.1,252.8,0.00,4.4,7.7,"08:24:24",1
"18/12/26","08:40",0.0,5.1,95.0,1014.5,277.6,1.7,2.1,267.4,0.00,4.4,7.5,"08:34:40",1
"18/12/26","08:50",0.0,5.2,95.3,1013.5,283.0,1.0,2.1,314.7,0.01,4.6,7.7,"08:44:32",1
"18/12/26","09:00",0.0,5.2,95.0,1014.0,274.6,1.5,2.7,310.3,0.00,4.5,7.5,"08:58:16",1
"18/12/26","09:10",0.0,5.3,95.2,1014.5,275.0,1.3,2.0,274.2,0.00,4.6,7.6,"09:02:10",1
"18/12/26","09:20",0.0,5.4,95.3,1014.2,285.9,1.6,2.1,296.2,0.01,4.7,7.5,"09:16:08",1
"18/12/26","09:30",0.0,5.4,95.0,1014.9,274.5,1.7,2.4,251.6,0.02,4.7,7.6,"09:28:52",1
"18/12/26","09:40",0.0,5.3,94.9,1014.9,283.2,2.2,3.3,314.6,0.02,4.6,7.6,"09:34:12",1
"18/12/26","09:50",0.0,5.5,94.7,1015.2,301.2,1.8,2.6,323.2,0.03,4.8,7.6,"09:46:32",1
"18/12/26","10:00",0.0,5.6,94.1,1014.9,328.3,2.0,3.5,332.5,0.04,4.8,7.7,"09:55:52",1
"18/12/26","10:10",0.0,5.9,93.7,1014.7,300.0,2.2,3.2,311.5,0.05,5.0,7.7,"10:09:12",1
"18/12/26","10:20",0.0,6.1,92.6,1014.7,298.6,2.0,3.4,330.4,0.05,5.0,7.8,"10:10:48",1
"18/12/26","10:30",0.0,6.4,91.9,1014.7,305.8,2.6,4.0,324.4,0.06,5.2,8.1,"10:24:48",1
"18/12/26","10:40",0.0,6.8,90.8,1014.0,310.5,2.8,4.2,325.6,0.08,5.4,7.9,"10:35:12",1
"18/12/26","10:50",0.0,7.1,89.1,1014.0,317.8,2.5,4.0,320.1,0.09,5.5,8.0,"10:40:08",1
"18/12/26","11:00",0.0,7.3,87.7,1014.2,301.1,2.1,3.4,333.9,0.08,5.4,8.1,"10:52:32",1
"18/12/26","11:10",0.0,7.2,86.3,1014.0,248.2,1.7,2.5,241.3,0.12,5.1,8.2,"11:07:52",1
"18/12/26","11:20",0.0,7.4,85.9,1013.5,259.0,1.5,2.0,277.1,0.15,5.2,8.3,"11:12:32",1
"18/12/26","11:30",0.0,7.6,85.7,1013.8,247.7,1.1,2.1,246.0,0.13,5.4,8.2,"11:28:48",1
"18/12/26","11:40",0.0,7.9,84.9,1013.3,232.5,0.8,2.0,247.6,0.18,5.6,8.4,"11:35:28",1
"18/12/26","11:50",0.0,8.0,85.0,1013.3,210.1,0.8,1.9,142.3,0.20,5.7,8.7,"11:48:24",1
"18/12/26","12:00",0.0,8.7,83.2,1012.8,222.2,0.8,1.4,150.3,0.20,6.1,8.7,"11:50:02",1
"18/12/26","12:10",0.0,8.6,82.4,1012.8,166.5,0.8,1.8,144.3,0.25,5.8,8.8,"12:05:52",1
"18/12/26","12:20",0.0,8.9,82.7,1012.6,215.3,0.8,1.6,190.7,0.20,6.2,8.9,"12:15:36",1
"18/12/26","12:30",0.0,9.0,80.7,1012.1,201.4,1.0,3.2,208.7,0.22,5.9,9.2,"12:26:00",1
"18/12/26","12:40",0.0,9.9,79.3,1011.6,164.0,1.3,2.6,166.3,0.29,6.5,9.2,"12:39:28",1
"18/12/26","12:50",0.0,9.3,78.4,1011.9,200.3,1.2,3.1,194.2,0.25,5.8,9.5,"12:49:52",1
"18/12/26","13:00",0.0,8.9,78.3,1011.6,185.3,1.5,2.7,122.8,0.16,5.4,9.7,"12:54:24",1
"18/12/26","13:10",0.0,9.5,77.4,1010.9,141.9,1.5,2.7,95.3,0.21,5.8,9.7,"13:08:32",1
"18/12/26","13:20",0.0,8.9,76.3,1011.4,194.0,1.6,3.1,134.0,0.12,5.0,9.8,"13:12:32",1
"18/12/26","13:30",0.0,9.6,77.0,1011.2,205.3,1.0,2.4,118.5,0.11,5.8,9.8,"13:21:04",1
"18/12/26","13:40",0.2,9.5,76.0,1010.9,174.6,0.8,2.0,179.9,0.17,5.5,9.9,"13:38:00",1
"18/12/26","13:50",0.0,9.5,75.3,1010.9,213.1,0.6,1.2,166.6,0.16,5.4,9.7,"13:43:52",1
"18/12/26","14:00",0.0,9.9,74.1,1010.4,279.2,0.6,1.6,308.0,0.20,5.5,10.0,"13:56:16",1
"18/12/26","14:10",0.0,9.8,75.5,1010.7,269.6,1.2,2.1,322.1,0.13,5.7,10.0,"14:01:12",1
"18/12/26","14:20",0.0,10.1,74.0,1010.7,223.0,1.0,2.2,144.7,0.18,5.7,10.2,"14:12:08",1
"18/12/26","14:30",0.0,10.5,73.4,1010.7,205.4,0.7,1.2,160.7,0.07,6.0,10.0,"14:22:56",1
"18/12/26","14:40",0.0,10.3,73.5,1010.9,213.9,1.0,2.2,241.1,0.04,5.8,10.3,"14:36:08",1
"18/12/26","14:50",0.0,10.3,73.4,1010.4,242.9,0.6,1.3,212.7,0.03,5.8,10.3,"14:43:28",1
"18/12/26","15:00",0.0,10.3,73.1,1010.7,318.8,0.6,1.1,311.5,0.01,5.7,10.3,"14:51:28",1
"18/12/26","15:10",0.0,10.3,73.9,1010.9,319.7,1.8,2.8,323.1,0.01,5.9,10.2,"15:01:28",1
"18/12/26","15:20",0.0,10.2,74.8,1010.7,312.4,1.3,2.6,307.9,0.00,6.0,10.2,"15:12:08",1
"18/12/26","15:30",0.0,10.1,74.8,1011.2,299.8,0.5,1.1,292.4,0.00,5.9,10.1,"15:23:44",1
"18/12/26","15:40",0.0,10.1,75.4,1011.4,288.9,1.1,3.1,329.2,0.00,6.0,10.1,"15:39:20",1
"18/12/26","15:50",0.0,10.1,75.2,1011.4,312.7,2.1,3.5,318.9,0.00,6.0,10.1,"15:40:24",1
"18/12/26","16:00",0.0,10.0,75.0,1011.6,303.6,2.1,3.5,275.2,0.00,5.8,10.2,"15:57:36",1
"18/12/26","16:10",0.0,10.0,75.2,1011.6,295.8,2.6,3.5,335.5,0.00,5.9,10.2,"16:09:44",1
"18/12/26","16:20",0.0,9.8,76.0,1011.6,288.8,2.1,3.6,311.4,0.00,5.8,9.9,"16:19:44",1
"18/12/26","16:30",0.0,9.7,77.0,1011.6,294.5,2.1,3.2,299.1,0.00,5.9,9.8,"16:23:04",1
"18/12/26","16:40",0.0,9.6,77.9,1011.4,311.8,2.1,3.1,319.7,0.00,6.0,9.9,"16:34:16",1
"18/12/26","16:50",0.0,9.5,78.3,1011.2,293.3,2.1,3.2,264.8,0.00,6.0,9.9,"16:49:52",1
"18/12/26","17:00",0.0,9.4,78.3,1010.7,287.0,2.1,3.7,264.5,0.00,5.9,9.9,"16:50:08",1
"18/12/26","17:10",0.0,9.3,78.5,1011.2,306.8,2.5,3.4,320.8,0.00,5.8,9.9,"17:01:52",1
"18/12/26","17:20",0.0,9.2,78.9,1011.4,298.0,2.2,4.2,302.9,0.00,5.8,9.9,"17:14:16",1
"18/12/26","17:30",0.0,9.2,79.1,1011.2,285.3,2.6,3.7,299.1,0.00,5.8,9.7,"17:24:48",1
"18/12/26","17:40",0.0,9.2,78.8,1011.4,300.4,3.1,4.3,325.4,0.00,5.8,9.8,"17:39:44",1
"18/12/26","17:50",0.0,9.2,78.9,1011.9,322.7,3.7,5.1,332.3,0.00,5.8,9.8,"17:48:32",1
"18/12/26","18:00",0.0,9.1,79.2,1011.6,319.7,2.6,3.9,328.6,0.00,5.7,9.5,"17:51:12",1
"18/12/26","18:10",0.0,9.1,79.6,1011.2,316.2,2.3,3.9,302.2,0.00,5.8,9.7,"18:07:52",1
"18/12/26","18:20",0.0,9.1,79.7,1011.2,312.1,2.3,3.5,323.7,0.00,5.8,9.5,"18:16:40",1
"18/12/26","18:30",0.0,9.0,79.9,1010.9,294.2,1.8,3.3,315.3,0.00,5.8,9.5,"18:20:40",1
"18/12/26","18:40",0.0,9.0,80.4,1011.6,291.5,2.0,3.5,305.7,0.00,5.9,9.5,"18:37:36",1
"18/12/26","18:50",0.0,9.0,80.8,1011.4,288.7,2.3,3.6,316.9,0.00,5.9,9.6,"18:48:40",1
"18/12/26","19:00",0.0,9.1,80.3,1011.4,292.8,2.6,4.0,308.6,0.00,5.9,9.3,"18:56:08",1
"18/12/26","19:10",0.0,9.0,80.2,1011.4,288.1,2.3,3.5,312.4,0.00,5.8,9.3,"19:03:12",1
"18/12/26","19:20",0.0,8.8,80.2,1011.4,307.2,2.5,3.4,301.0,0.00,5.6,9.4,"19:12:40",1
"18/12/26","19:30",0.0,8.6,81.4,1010.7,307.2,2.6,3.7,322.3,0.00,5.6,9.3,"19:21:28",1
"18/12/26","19:40",0.0,8.3,82.1,1010.9,310.7,2.3,3.1,316.9,0.00,5.5,9.3,"19:30:48",1
"18/12/26","19:50",0.0,8.0,82.5,1011.2,310.3,2.1,3.6,317.3,0.00,5.2,9.1,"19:46:32",1
"18/12/26","20:00",0.0,7.9,84.3,1010.4,325.9,2.3,4.9,338.9,0.00,5.5,9.2,"19:50:24",1
"18/12/26","20:10",0.0,7.7,85.0,1010.7,297.4,1.7,3.1,321.1,0.00,5.4,9.2,"20:00:56",1
"18/12/26","20:20",0.0,7.7,85.9,1010.7,320.3,2.3,3.3,320.4,0.00,5.5,9.1,"20:13:20",1
"18/12/26","20:30",0.0,7.9,86.1,1010.4,318.1,2.7,5.6,343.2,0.00,5.8,9.0,"20:21:12",1
"18/12/26","20:40",0.0,7.9,86.5,1011.2,313.9,2.3,4.0,326.2,0.00,5.8,9.1,"20:32:56",1
"18/12/26","20:50",0.0,7.9,86.6,1010.9,312.6,2.0,3.5,274.1,0.00,5.8,9.0,"20:47:28",1
"18/12/26","21:00",0.0,8.1,86.7,1011.6,307.6,2.2,4.0,322.9,0.00,6.1,8.9,"20:55:52",1
"18/12/26","21:10",0.0,8.3,86.4,1010.9,309.2,2.2,4.3,311.2,0.00,6.2,9.0,"21:01:52",1
"18/12/26","21:20",0.0,8.3,86.2,1010.7,316.2,1.7,3.5,318.0,0.00,6.2,9.1,"21:10:16",1
"18/12/26","21:30",0.0,8.3,86.1,1010.7,303.5,1.6,3.6,274.9,0.00,6.2,9.1,"21:24:00",1
"18/12/26","21:40",0.0,8.4,85.7,1010.7,320.4,2.7,4.5,328.0,0.00,6.2,9.0,"21:34:40",1
"18/12/26","21:50",0.0,8.2,85.6,1010.4,327.4,2.3,4.3,330.2,0.00,6.0,8.8,"21:41:20",1
"18/12/26","22:00",0.0,8.1,86.1,1009.7,329.8,2.7,4.9,337.5,0.00,6.0,9.1,"21:59:28",1
"18/12/26","22:10",0.0,8.1,86.3,1009.3,326.2,2.7,3.7,320.1,0.00,6.0,9.0,"22:02:48",1
"18/12/26","22:20",0.0,8.0,86.4,1009.5,325.5,2.5,4.0,323.0,0.00,5.9,8.7,"22:11:20",1
"18/12/26","22:30",0.0,7.9,86.7,1009.7,330.6,2.1,4.0,334.2,0.00,5.9,8.8,"22:20:02",1
"18/12/26","22:40",0.0,7.9,87.0,1009.5,324.1,2.6,4.1,329.6,0.00,5.9,8.8,"22:31:12",1
"18/12/26","22:50",0.0,7.9,87.2,1009.5,316.9,2.3,4.3,326.6,0.00,5.9,8.8,"22:42:16",1
"18/12/26","23:00",0.0,7.7,86.9,1009.5,333.3,1.5,2.5,323.2,0.00,5.7,8.8,"22:50:02",1
"18/12/26","23:10",0.0,7.4,87.8,1009.7,302.0,1.2,2.5,321.1,0.00,5.6,9.0,"23:00:32",1
"18/12/26","23:20",0.0,7.1,88.4,1009.3,286.8,1.0,1.8,318.0,0.00,5.4,8.9,"23:12:08",1
"18/12/26","23:30",0.0,6.9,89.0,1009.5,317.4,1.0,2.6,313.9,0.00,5.3,8.7,"23:26:16",1
"18/12/26","23:40",0.0,6.7,90.2,1009.5,294.0,1.1,1.8,261.0,0.00,5.2,8.5,"23:32:56",1
"18/12/26","23:50",0.0,6.9,90.7,1009.7,298.3,1.8,3.5,323.9,0.00,5.5,8.7,"23:46:24",1
"18/12/26","24:00",0.0,7.4,90.6,1009.5,314.3,3.0,4.5,335.8,0.00,6.0,8.7,"23:59:04",1
